Time,TemperatureF,DewpointF,PressureIn,WindDirection,WindDirectionDegrees,WindSpeedMPH,WindSpeedGustMPH,Humidity,HourlyPrecipIn,Conditions,Clouds,dailyrainin,SoftwareType,DateUTC
2013-12-22 00:00:00,66.1,63.7,30.02,SSW,198,7.0,7.0,92,0.00,,---,0.00,VWS V14.01,2013-12-22 05:00:00,
2013-12-22 00:01:00,66.1,63.7,30.02,SSE,150,4.0,7.0,92,0.00,,---,0.00,VWS V14.01,2013-12-22 05:01:00,
2013-12-22 00:06:00,66.3,63.9,30.02,SSE,159,5.0,12.0,92,0.00,,---,0.00,VWS V14.01,2013-12-22 05:06:00,
2013-12-22 00:11:00,66.5,64.1,30.02,SSE,166,7.0,15.0,92,0.00,,---,0.00,VWS V14.01,2013-12-22 05:11:00,
2013-12-22 00:16:00,66.7,64.3,30.02,SW,214,0.0,15.0,92,0.00,,---,0.00,VWS V14.01,2013-12-22 05:16:00,
2013-12-22 00:21:00,66.8,64.4,30.02,South,180,0.0,15.0,92,0.00,,---,0.00,VWS V14.01,2013-12-22 05:21:00,
2013-12-22 00:26:00,66.9,64.5,30.01,South,184,7.0,7.0,92,0.00,,---,0.00,VWS V14.01,2013-12-22 05:26:00,
2013-12-22 00:30:00,66.9,64.5,30.02,SSE,156,3.0,15.0,92,0.00,,---,0.00,VWS V14.01,2013-12-22 05:30:00,
2013-12-22 00:31:00,67.0,64.6,30.01,SSE,157,0.0,7.0,92,0.00,,---,0.00,VWS V14.01,2013-12-22 05:31:00,
2013-12-22 00:36:00,67.2,64.5,30.01,SE,141,3.0,13.0,91,0.00,,---,0.00,VWS V14.01,2013-12-22 05:36:00,
2013-12-22 00:41:00,67.4,64.7,30.00,SW,228,8.0,13.0,91,0.00,,---,0.00,VWS V14.01,2013-12-22 05:41:00,
2013-12-22 00:46:00,67.5,64.8,30.00,ESE,123,2.0,13.0,91,0.00,,---,0.00,VWS V14.01,2013-12-22 05:46:00,
2013-12-22 00:51:00,67.5,64.5,30.00,SSE,161,3.0,13.0,90,0.00,,---,0.00,VWS V14.01,2013-12-22 05:51:00,
2013-12-22 00:56:00,67.6,64.6,30.00,South,178,5.0,7.0,90,0.00,,---,0.00,VWS V14.01,2013-12-22 05:56:00,
2013-12-22 01:00:00,67.6,64.9,30.00,SSW,209,2.0,14.0,91,0.00,,---,0.00,VWS V14.01,2013-12-22 06:00:00,
2013-12-22 01:01:00,67.7,65.0,30.00,SSE,163,7.0,14.0,91,0.00,,---,0.00,VWS V14.01,2013-12-22 06:01:00,
2013-12-22 01:06:00,67.8,64.8,29.99,SSW,212,4.0,14.0,90,0.00,,---,0.00,VWS V14.01,2013-12-22 06:06:00,
2013-12-22 01:11:00,67.9,64.9,29.99,SSW,199,6.0,14.0,90,0.00,,---,0.00,VWS V14.01,2013-12-22 06:11:00,
2013-12-22 01:16:00,68.0,65.0,29.99,NW,320,1.0,16.0,90,0.00,,---,0.00,VWS V14.01,2013-12-22 06:16:00,
2013-12-22 01:21:00,68.1,64.7,29.99,South,186,2.0,16.0,89,0.00,,---,0.00,VWS V14.01,2013-12-22 06:21:00,
2013-12-22 01:26:00,68.2,64.8,29.99,SSW,207,0.0,1.0,89,0.00,,---,0.00,VWS V14.01,2013-12-22 06:26:00,
2013-12-22 01:30:00,68.1,64.7,29.99,SSW,194,1.0,16.0,89,0.00,,---,0.00,VWS V14.01,2013-12-22 06:30:00,
2013-12-22 01:31:00,68.3,64.9,29.99,WSW,249,5.0,11.0,89,0.00,,---,0.00,VWS V14.01,2013-12-22 06:31:00,
2013-12-22 01:37:00,68.4,65.0,29.99,SSW,196,6.0,12.0,89,0.00,,---,0.00,VWS V14.01,2013-12-22 06:37:00,
2013-12-22 01:42:00,68.5,64.8,29.99,South,182,5.0,18.0,88,0.00,,---,0.00,VWS V14.01,2013-12-22 06:42:00,
2013-12-22 01:47:00,68.7,65.0,29.99,SSE,148,13.0,18.0,88,0.00,,---,0.00,VWS V14.01,2013-12-22 06:47:00,
2013-12-22 01:52:00,68.8,65.1,29.99,South,188,1.0,18.0,88,0.00,,---,0.00,VWS V14.01,2013-12-22 06:52:00,
2013-12-22 01:57:00,68.8,65.1,29.98,SW,233,12.0,13.0,88,0.00,,---,0.00,VWS V14.01,2013-12-22 06:57:00,
2013-12-22 01:59:00,68.9,65.2,29.99,SSE,148,18.0,18.0,88,0.00,,---,0.00,VWS V14.01,2013-12-22 06:59:00,
2013-12-22 02:00:00,68.9,65.2,29.98,SE,132,7.0,18.0,88,0.00,,---,0.00,VWS V14.01,2013-12-22 07:00:00,
2013-12-22 02:04:00,69.0,65.0,29.99,South,189,5.0,18.0,87,0.00,,---,0.00,VWS V14.01,2013-12-22 07:04:00,
2013-12-22 02:09:00,69.2,65.2,29.99,South,181,3.0,18.0,87,0.00,,---,0.00,VWS V14.01,2013-12-22 07:09:00,
2013-12-22 02:14:00,69.3,64.9,29.99,SW,223,2.0,18.0,86,0.00,,---,0.00,VWS V14.01,2013-12-22 07:14:00,
2013-12-22 02:19:00,69.4,65.0,29.99,SW,234,5.0,18.0,86,0.00,,---,0.00,VWS V14.01,2013-12-22 07:19:00,
2013-12-22 02:24:00,69.5,65.1,29.99,SSW,195,3.0,23.0,86,0.00,,---,0.00,VWS V14.01,2013-12-22 07:24:00,
2013-12-22 02:29:00,69.5,65.1,30.00,SW,220,0.0,11.0,86,0.00,,---,0.00,VWS V14.01,2013-12-22 07:29:00,
2013-12-22 02:30:00,69.5,65.1,30.00,SSW,211,0.0,23.0,86,0.00,,---,0.00,VWS V14.01,2013-12-22 07:30:00,
2013-12-22 02:34:00,69.4,65.0,30.00,SW,214,4.0,16.0,86,0.00,,---,0.00,VWS V14.01,2013-12-22 07:34:00,
2013-12-22 02:39:00,69.4,65.0,30.00,South,178,4.0,22.0,86,0.00,,---,0.00,VWS V14.01,2013-12-22 07:39:00,
2013-12-22 02:44:00,69.4,65.0,30.00,South,169,0.0,22.0,86,0.00,,---,0.00,VWS V14.01,2013-12-22 07:44:00,
2013-12-22 02:49:00,69.4,65.0,30.00,SW,231,2.0,22.0,86,0.00,,---,0.00,VWS V14.01,2013-12-22 07:49:00,
2013-12-22 02:54:00,69.3,64.9,30.00,WSW,250,0.0,22.0,86,0.00,,---,0.00,VWS V14.01,2013-12-22 07:54:00,
2013-12-22 03:00:00,69.4,65.0,30.00,SSW,204,0.0,14.0,86,0.00,,---,0.00,VWS V14.01,2013-12-22 08:00:00,
2013-12-22 03:05:00,69.5,65.1,30.00,WSW,244,7.0,14.0,86,0.00,,---,0.00,VWS V14.01,2013-12-22 08:05:00,
2013-12-22 03:10:00,69.6,65.2,30.00,SW,234,4.0,19.0,86,0.00,,---,0.00,VWS V14.01,2013-12-22 08:10:00,
2013-12-22 03:15:00,69.7,65.0,30.00,SSW,200,3.0,25.0,85,0.00,,---,0.00,VWS V14.01,2013-12-22 08:15:00,
2013-12-22 03:20:00,69.7,65.0,30.00,South,184,7.0,25.0,85,0.00,,---,0.00,VWS V14.01,2013-12-22 08:20:00,
2013-12-22 03:25:00,69.6,65.2,30.00,South,177,6.0,25.0,86,0.00,,---,0.00,VWS V14.01,2013-12-22 08:25:00,
2013-12-22 03:30:00,69.6,65.2,30.00,SW,223,15.0,16.0,86,0.00,,---,0.00,VWS V14.01,2013-12-22 08:30:00,
2013-12-22 03:35:00,69.6,64.9,30.00,SSW,193,16.0,19.0,85,0.00,,---,0.00,VWS V14.01,2013-12-22 08:35:00,
2013-12-22 03:40:00,69.6,65.2,29.99,South,178,6.0,19.0,86,0.00,,---,0.00,VWS V14.01,2013-12-22 08:40:00,
2013-12-22 03:45:00,69.5,65.1,29.99,SSW,211,5.0,19.0,86,0.00,,---,0.00,VWS V14.01,2013-12-22 08:45:00,
2013-12-22 03:50:00,69.4,65.0,30.00,SSW,194,3.0,19.0,86,0.00,,---,0.00,VWS V14.01,2013-12-22 08:50:00,
2013-12-22 03:55:00,69.4,65.0,29.99,SSE,150,1.0,20.0,86,0.00,,---,0.00,VWS V14.01,2013-12-22 08:55:00,
2013-12-22 04:00:00,69.4,65.0,29.99,South,190,2.0,15.0,86,0.00,,---,0.00,VWS V14.01,2013-12-22 09:00:00,
2013-12-22 04:05:00,69.4,65.0,29.99,WSW,251,2.0,15.0,86,0.00,,---,0.00,VWS V14.01,2013-12-22 09:05:00,
2013-12-22 04:10:00,69.3,64.9,29.99,SSW,213,3.0,15.0,86,0.00,,---,0.00,VWS V14.01,2013-12-22 09:10:00,
2013-12-22 04:15:00,69.2,64.8,29.99,South,190,9.0,15.0,86,0.00,,---,0.00,VWS V14.01,2013-12-22 09:15:00,
2013-12-22 04:20:00,69.4,65.0,29.98,NW,307,12.0,18.0,86,0.00,,---,0.00,VWS V14.01,2013-12-22 09:20:00,
2013-12-22 04:25:00,69.4,65.0,29.97,SSE,160,10.0,18.0,86,0.00,,---,0.00,VWS V14.01,2013-12-22 09:25:00,
2013-12-22 04:30:00,69.4,65.0,29.96,East,101,4.0,16.0,86,0.00,,---,0.00,VWS V14.01,2013-12-22 09:30:00,
2013-12-22 04:35:00,69.4,65.0,29.96,SSW,200,15.0,16.0,86,0.00,,---,0.00,VWS V14.01,2013-12-22 09:35:00,
2013-12-22 04:40:00,69.4,65.0,29.96,SE,132,5.0,22.0,86,0.00,,---,0.00,VWS V14.01,2013-12-22 09:40:00,
2013-12-22 04:45:00,69.4,65.0,29.96,South,182,11.0,22.0,86,0.00,,---,0.00,VWS V14.01,2013-12-22 09:45:00,
2013-12-22 04:50:00,69.5,65.1,29.96,South,177,15.0,22.0,86,0.00,,---,0.00,VWS V14.01,2013-12-22 09:50:00,
2013-12-22 04:55:00,69.4,65.4,29.97,South,191,5.0,22.0,87,0.00,,---,0.00,VWS V14.01,2013-12-22 09:55:00,
2013-12-22 05:00:00,69.3,65.3,29.97,South,176,3.0,16.0,87,0.00,,---,0.00,VWS V14.01,2013-12-22 10:00:00,
2013-12-22 05:05:00,69.2,65.2,29.97,ESE,118,11.0,17.0,87,0.00,,---,0.00,VWS V14.01,2013-12-22 10:05:00,
2013-12-22 05:10:00,69.1,65.1,29.97,South,172,3.0,17.0,87,0.00,,---,0.00,VWS V14.01,2013-12-22 10:10:00,
2013-12-22 05:15:00,69.1,65.4,29.97,SE,143,2.0,19.0,88,0.00,,---,0.00,VWS V14.01,2013-12-22 10:15:00,
2013-12-22 05:20:00,69.0,65.3,29.97,SE,144,10.0,26.0,88,0.00,,---,0.00,VWS V14.01,2013-12-22 10:20:00,
2013-12-22 05:25:00,69.1,65.4,29.97,South,189,4.0,26.0,88,0.00,,---,0.00,VWS V14.01,2013-12-22 10:25:00,
2013-12-22 05:30:00,69.1,65.4,29.99,SW,215,3.0,16.0,88,0.00,,---,0.00,VWS V14.01,2013-12-22 10:30:00,
2013-12-22 05:35:00,69.1,65.4,29.98,SSW,196,5.0,16.0,88,0.00,,---,0.00,VWS V14.01,2013-12-22 10:35:00,
2013-12-22 05:40:00,69.0,65.3,29.99,SW,224,11.0,16.0,88,0.00,,---,0.00,VWS V14.01,2013-12-22 10:40:00,
2013-12-22 05:45:00,69.1,65.4,29.99,SSW,192,3.0,20.0,88,0.00,,---,0.00,VWS V14.01,2013-12-22 10:45:00,
2013-12-22 05:50:00,69.0,65.3,29.99,South,188,6.0,20.0,88,0.00,,---,0.00,VWS V14.01,2013-12-22 10:50:00,
2013-12-22 05:55:00,68.9,65.2,29.99,SSW,206,2.0,20.0,88,0.00,,---,0.00,VWS V14.01,2013-12-22 10:55:00,
2013-12-22 06:00:00,68.9,65.5,29.99,SSE,159,4.0,11.0,89,0.00,,---,0.00,VWS V14.01,2013-12-22 11:00:00,
2013-12-22 06:05:00,68.9,65.5,29.99,SSW,205,6.0,16.0,89,0.00,,---,0.00,VWS V14.01,2013-12-22 11:05:00,
2013-12-22 06:10:00,68.8,65.4,29.99,South,171,4.0,16.0,89,0.00,,---,0.00,VWS V14.01,2013-12-22 11:10:00,
2013-12-22 06:15:00,68.8,65.4,29.99,SW,217,4.0,21.0,89,0.00,,---,0.00,VWS V14.01,2013-12-22 11:15:00,
2013-12-22 06:20:00,68.8,65.4,29.99,SSE,162,11.0,21.0,89,0.00,,---,0.00,VWS V14.01,2013-12-22 11:20:00,
2013-12-22 06:25:00,68.7,65.3,29.99,South,182,3.0,21.0,89,0.00,,---,0.00,VWS V14.01,2013-12-22 11:25:00,
2013-12-22 06:30:00,68.8,65.4,29.99,SW,216,2.0,12.0,89,0.00,,---,0.00,VWS V14.01,2013-12-22 11:30:00,
2013-12-22 06:35:00,68.7,65.3,29.99,SE,133,6.0,14.0,89,0.00,,---,0.00,VWS V14.01,2013-12-22 11:35:00,
2013-12-22 06:40:00,68.7,65.7,30.00,SSE,163,6.0,14.0,90,0.00,,---,0.00,VWS V14.01,2013-12-22 11:40:00,
2013-12-22 06:45:00,68.7,65.7,30.00,SSE,165,6.0,14.0,90,0.00,,---,0.00,VWS V14.01,2013-12-22 11:45:00,
2013-12-22 06:50:00,68.8,65.8,29.99,WSW,253,3.0,18.0,90,0.00,,---,0.00,VWS V14.01,2013-12-22 11:50:00,
2013-12-22 06:56:00,68.8,65.8,30.00,SSW,202,0.0,18.0,90,0.00,,---,0.00,VWS V14.01,2013-12-22 11:56:00,
2013-12-22 07:00:00,68.8,65.8,30.00,SW,226,4.0,18.0,90,0.00,,---,0.00,VWS V14.01,2013-12-22 12:00:00,
2013-12-22 07:01:00,68.6,65.6,30.00,SW,217,1.0,7.0,90,0.00,,---,0.00,VWS V14.01,2013-12-22 12:01:00,
2013-12-22 07:06:00,68.7,65.7,30.01,SSW,204,9.0,12.0,90,0.00,,---,0.00,VWS V14.01,2013-12-22 12:06:00,
2013-12-22 07:11:00,68.8,65.8,30.01,SSW,194,3.0,12.0,90,0.00,,---,0.00,VWS V14.01,2013-12-22 12:11:00,
2013-12-22 07:16:00,68.9,65.8,30.01,South,186,0.0,12.0,90,0.00,,---,0.00,VWS V14.01,2013-12-22 12:16:00,
2013-12-22 07:21:00,68.9,65.8,30.01,ESE,121,5.0,12.0,90,0.00,,---,0.00,VWS V14.01,2013-12-22 12:21:00,
2013-12-22 07:26:00,68.9,65.8,30.01,SW,216,0.0,12.0,90,0.00,,---,0.00,VWS V14.01,2013-12-22 12:26:00,
2013-12-22 07:30:00,68.9,65.8,30.01,SSW,196,7.0,12.0,90,0.00,,---,0.00,VWS V14.01,2013-12-22 12:30:00,
2013-12-22 07:31:00,69.0,65.9,30.01,SW,219,3.0,16.0,90,0.00,,---,0.00,VWS V14.01,2013-12-22 12:31:00,
2013-12-22 07:36:00,69.1,66.1,30.01,SW,222,5.0,17.0,90,0.00,,---,0.00,VWS V14.01,2013-12-22 12:36:00,
2013-12-22 07:41:00,69.2,66.2,30.01,SE,138,15.0,17.0,90,0.00,,---,0.00,VWS V14.01,2013-12-22 12:41:00,
2013-12-22 07:46:00,69.2,66.2,30.02,SSW,196,4.0,17.0,90,0.00,,---,0.00,VWS V14.01,2013-12-22 12:46:00,
2013-12-22 07:51:00,69.2,66.2,30.02,SSW,207,3.0,17.0,90,0.00,,---,0.00,VWS V14.01,2013-12-22 12:51:00,
2013-12-22 07:56:00,69.1,66.1,30.03,SSW,204,4.0,17.0,90,0.00,,---,0.00,VWS V14.01,2013-12-22 12:56:00,
2013-12-22 08:00:00,69.2,66.2,30.03,SW,228,2.0,17.0,90,0.00,,---,0.00,VWS V14.01,2013-12-22 13:00:00,
2013-12-22 08:01:00,69.2,66.2,30.03,SW,229,6.0,18.0,90,0.00,,---,0.00,VWS V14.01,2013-12-22 13:01:00,
2013-12-22 08:06:00,69.2,66.2,30.03,South,190,5.0,18.0,90,0.00,,---,0.00,VWS V14.01,2013-12-22 13:06:00,
2013-12-22 08:11:00,69.2,66.2,30.03,SE,140,1.0,18.0,90,0.00,,---,0.00,VWS V14.01,2013-12-22 13:11:00,
2013-12-22 08:16:00,69.2,66.2,30.03,SW,220,3.0,18.0,90,0.00,,---,0.00,VWS V14.01,2013-12-22 13:16:00,
2013-12-22 08:21:00,69.2,66.2,30.03,SW,221,4.0,18.0,90,0.00,,---,0.00,VWS V14.01,2013-12-22 13:21:00,
2013-12-22 08:26:00,69.2,66.2,30.03,SW,221,4.0,18.0,90,0.00,,---,0.00,VWS V14.01,2013-12-22 13:26:00,
2013-12-22 08:30:00,69.2,66.2,30.03,SSE,167,6.0,18.0,90,0.00,,---,0.00,VWS V14.01,2013-12-22 13:30:00,
2013-12-22 08:31:00,69.2,66.2,30.02,SE,139,1.0,9.0,90,0.00,,---,0.00,VWS V14.01,2013-12-22 13:31:00,
2013-12-22 08:36:00,69.1,66.1,30.02,SSW,199,0.0,10.0,90,0.00,,---,0.00,VWS V14.01,2013-12-22 13:36:00,
2013-12-22 08:41:00,69.2,66.2,30.02,SSE,157,0.0,14.0,90,0.00,,---,0.00,VWS V14.01,2013-12-22 13:41:00,
2013-12-22 08:46:00,69.2,66.2,30.03,SW,214,2.0,14.0,90,0.00,,---,0.00,VWS V14.01,2013-12-22 13:46:00,
2013-12-22 08:51:00,69.4,66.3,30.03,SSW,197,10.0,14.0,90,0.00,,---,0.00,VWS V14.01,2013-12-22 13:51:00,
2013-12-22 08:56:00,69.5,66.4,30.03,SSE,167,2.0,18.0,90,0.00,,---,0.00,VWS V14.01,2013-12-22 13:56:00,
2013-12-22 09:00:00,69.5,66.4,30.03,SSE,164,1.0,18.0,90,0.00,,---,0.00,VWS V14.01,2013-12-22 14:00:00,
2013-12-22 09:01:00,69.7,66.6,30.03,South,178,2.0,15.0,90,0.00,,---,0.00,VWS V14.01,2013-12-22 14:01:00,
2013-12-22 09:06:00,69.9,66.8,30.03,SSW,207,0.0,15.0,90,0.00,,---,0.00,VWS V14.01,2013-12-22 14:06:00,
2013-12-22 09:11:00,69.9,66.5,30.03,South,184,5.0,15.0,89,0.00,,---,0.00,VWS V14.01,2013-12-22 14:11:00,
2013-12-22 09:16:00,69.9,66.5,30.03,SSE,147,0.0,15.0,89,0.00,,---,0.00,VWS V14.01,2013-12-22 14:16:00,
2013-12-22 09:21:00,69.9,66.5,30.03,SSE,153,4.0,15.0,89,0.00,,---,0.00,VWS V14.01,2013-12-22 14:21:00,
2013-12-22 09:26:00,69.9,66.8,30.03,SSW,198,0.0,0.0,90,0.00,,---,0.00,VWS V14.01,2013-12-22 14:26:00,
2013-12-22 09:30:00,69.9,66.8,30.04,SSW,198,0.0,15.0,90,0.00,,---,0.00,VWS V14.01,2013-12-22 14:30:00,
2013-12-22 09:31:00,70.1,66.7,30.04,SSW,212,6.0,11.0,89,0.00,,---,0.00,VWS V14.01,2013-12-22 14:31:00,
2013-12-22 09:36:00,70.4,67.0,30.04,SSW,207,2.0,11.0,89,0.00,,---,0.00,VWS V14.01,2013-12-22 14:36:00,
2013-12-22 09:41:00,70.7,67.0,30.04,SW,230,3.0,21.0,88,0.00,,---,0.00,VWS V14.01,2013-12-22 14:41:00,
2013-12-22 09:46:00,70.8,67.1,30.05,SW,221,10.0,21.0,88,0.00,,---,0.00,VWS V14.01,2013-12-22 14:46:00,
2013-12-22 09:51:00,71.0,67.3,30.05,WNW,295,0.0,21.0,88,0.00,,---,0.00,VWS V14.01,2013-12-22 14:51:00,
2013-12-22 09:56:00,71.2,67.5,30.05,SSW,194,4.0,8.0,88,0.00,,---,0.00,VWS V14.01,2013-12-22 14:56:00,
2013-12-22 10:00:00,71.2,67.5,30.05,SE,130,12.0,21.0,88,0.00,,---,0.00,VWS V14.01,2013-12-22 15:00:00,
2013-12-22 10:01:00,71.5,67.4,30.05,SW,234,9.0,15.0,87,0.00,,---,0.00,VWS V14.01,2013-12-22 15:01:00,
2013-12-22 10:06:00,71.7,67.6,30.04,SSW,204,3.0,19.0,87,0.00,,---,0.00,VWS V14.01,2013-12-22 15:06:00,
2013-12-22 10:11:00,71.7,67.6,30.04,West,260,2.0,19.0,87,0.00,,---,0.00,VWS V14.01,2013-12-22 15:11:00,
2013-12-22 10:16:00,71.7,67.3,30.05,SSW,203,4.0,19.0,86,0.00,,---,0.00,VWS V14.01,2013-12-22 15:16:00,
2013-12-22 10:22:00,71.7,67.3,30.04,SSW,204,4.0,19.0,86,0.00,,---,0.00,VWS V14.01,2013-12-22 15:22:00,
2013-12-22 10:27:00,71.8,67.4,30.05,SSW,197,5.0,7.0,86,0.00,,---,0.00,VWS V14.01,2013-12-22 15:27:00,
2013-12-22 10:30:00,71.8,67.4,30.05,SSW,211,3.0,19.0,86,0.00,,---,0.00,VWS V14.01,2013-12-22 15:30:00,
2013-12-22 10:31:00,71.9,67.5,30.05,SSW,213,4.0,13.0,86,0.00,,---,0.00,VWS V14.01,2013-12-22 15:31:00,
2013-12-22 10:37:00,72.0,67.2,30.05,SSE,159,2.0,15.0,85,0.00,,---,0.00,VWS V14.01,2013-12-22 15:37:00,
2013-12-22 10:42:00,72.0,67.6,30.06,South,178,2.0,15.0,86,0.00,,---,0.00,VWS V14.01,2013-12-22 15:42:00,
2013-12-22 10:47:00,72.0,67.6,30.06,SW,231,1.0,15.0,86,0.00,,---,0.00,VWS V14.01,2013-12-22 15:47:00,
2013-12-22 10:52:00,72.0,67.2,30.06,SSW,202,3.0,15.0,85,0.00,,---,0.00,VWS V14.01,2013-12-22 15:52:00,
2013-12-22 10:57:00,71.9,67.5,30.06,SW,236,6.0,12.0,86,0.00,,---,0.00,VWS V14.01,2013-12-22 15:57:00,
2013-12-22 11:00:00,72.0,67.6,30.06,SSE,150,12.0,15.0,86,0.00,,---,0.00,VWS V14.01,2013-12-22 16:00:00,
2013-12-22 11:02:00,72.0,67.6,30.06,SSW,193,0.0,12.0,86,0.00,,---,0.00,VWS V14.01,2013-12-22 16:02:00,
2013-12-22 11:07:00,72.1,67.3,30.06,SW,223,0.0,12.0,85,0.00,,---,0.00,VWS V14.01,2013-12-22 16:07:00,
2013-12-22 11:12:00,71.9,67.5,30.06,WSW,245,0.0,12.0,86,0.00,,---,0.00,VWS V14.01,2013-12-22 16:12:00,
2013-12-22 11:17:00,71.6,67.5,30.06,WNW,291,0.0,12.0,87,0.00,,---,0.00,VWS V14.01,2013-12-22 16:17:00,
2013-12-22 11:22:00,70.9,66.8,30.07,WNW,284,4.0,12.0,87,0.00,,---,0.00,VWS V14.01,2013-12-22 16:22:00,
2013-12-22 11:27:00,69.6,65.9,30.06,NW,306,3.0,5.0,88,0.02,,---,0.02,VWS V14.01,2013-12-22 16:27:00,
2013-12-22 11:30:00,69.9,66.2,30.06,WNW,288,4.0,12.0,88,0.01,,---,0.01,VWS V14.01,2013-12-22 16:30:00,
2013-12-22 11:32:00,68.3,65.3,30.06,WNW,292,4.0,7.0,90,0.02,,---,0.02,VWS V14.01,2013-12-22 16:32:00,
2013-12-22 11:37:00,67.6,65.2,30.06,WNW,288,2.0,7.0,92,0.02,,---,0.02,VWS V14.01,2013-12-22 16:37:00,
2013-12-22 11:42:00,67.2,65.1,30.06,WNW,291,1.0,7.0,93,0.02,,---,0.02,VWS V14.01,2013-12-22 16:42:00,
2013-12-22 11:47:00,67.1,65.0,30.06,West,277,0.0,7.0,93,0.04,,---,0.04,VWS V14.01,2013-12-22 16:47:00,
2013-12-22 11:52:00,66.9,65.1,30.06,West,268,3.0,10.0,94,0.05,,---,0.05,VWS V14.01,2013-12-22 16:52:00,
2013-12-22 11:57:00,66.8,65.0,30.05,West,268,0.0,0.0,94,0.06,,---,0.06,VWS V14.01,2013-12-22 16:57:00,
2013-12-22 12:00:00,66.8,65.0,30.05,West,267,0.0,10.0,94,0.05,,---,0.05,VWS V14.01,2013-12-22 17:00:00,
2013-12-22 12:05:00,66.8,65.3,30.05,NW,313,0.0,5.0,95,0.16,,---,0.16,VWS V14.01,2013-12-22 17:05:00,
2013-12-22 12:11:00,66.6,65.1,30.05,West,275,2.0,5.0,95,0.23,,---,0.23,VWS V14.01,2013-12-22 17:11:00,
2013-12-22 12:16:00,66.6,65.1,30.05,WNW,289,4.0,8.0,95,0.23,,---,0.23,VWS V14.01,2013-12-22 17:16:00,
2013-12-22 12:21:00,66.8,65.3,30.05,WSW,257,1.0,8.0,95,0.23,,---,0.23,VWS V14.01,2013-12-22 17:21:00,
2013-12-22 12:26:00,66.9,65.4,30.05,SSW,213,0.0,8.0,95,0.23,,---,0.23,VWS V14.01,2013-12-22 17:26:00,
2013-12-22 12:30:00,66.9,65.4,30.05,SW,217,0.0,8.0,95,0.23,,---,0.23,VWS V14.01,2013-12-22 17:30:00,
2013-12-22 12:31:00,67.0,65.5,30.04,SW,220,0.0,1.0,95,0.22,,---,0.23,VWS V14.01,2013-12-22 17:31:00,
2013-12-22 12:36:00,67.0,65.5,30.04,SW,220,0.0,3.0,95,0.22,,---,0.23,VWS V14.01,2013-12-22 17:36:00,
2013-12-22 12:41:00,67.1,65.6,30.05,WNW,301,0.0,3.0,95,0.22,,---,0.23,VWS V14.01,2013-12-22 17:41:00,
2013-12-22 12:46:00,67.1,65.6,30.05,WNW,298,2.0,3.0,95,0.22,,---,0.23,VWS V14.01,2013-12-22 17:46:00,
2013-12-22 12:51:00,66.4,64.6,30.06,WNW,284,3.0,11.0,94,0.22,,---,0.23,VWS V14.01,2013-12-22 17:51:00,
2013-12-22 12:56:00,65.4,62.7,30.07,WNW,286,0.0,11.0,91,0.22,,---,0.23,VWS V14.01,2013-12-22 17:56:00,
2013-12-22 13:00:00,65.3,62.6,30.07,WNW,282,1.0,11.0,91,0.22,,---,0.23,VWS V14.01,2013-12-22 18:00:00,
2013-12-22 13:01:00,64.5,61.5,30.06,NW,305,1.0,5.0,90,0.18,,---,0.23,VWS V14.01,2013-12-22 18:01:00,
2013-12-22 13:06:00,63.8,61.1,30.07,NW,304,0.0,5.0,91,0.19,,---,0.24,VWS V14.01,2013-12-22 18:06:00,
2013-12-22 13:11:00,63.0,60.6,30.06,WNW,296,2.0,6.0,92,0.19,,---,0.24,VWS V14.01,2013-12-22 18:11:00,
2013-12-22 13:16:00,62.5,60.5,30.07,WNW,290,0.0,6.0,93,0.19,,---,0.24,VWS V14.01,2013-12-22 18:16:00,
2013-12-22 13:21:00,62.1,60.1,30.06,NW,322,0.0,6.0,93,0.19,,---,0.24,VWS V14.01,2013-12-22 18:21:00,
2013-12-22 13:26:00,62.0,60.3,30.07,NW,309,0.0,6.0,94,0.19,,---,0.24,VWS V14.01,2013-12-22 18:26:00,
2013-12-22 13:30:00,62.0,60.3,30.07,NW,309,0.0,6.0,94,0.19,,---,0.24,VWS V14.01,2013-12-22 18:30:00,
2013-12-22 13:31:00,61.9,60.2,30.08,WNW,295,1.0,3.0,94,0.02,,---,0.25,VWS V14.01,2013-12-22 18:31:00,
2013-12-22 13:36:00,61.5,59.8,30.07,WNW,294,3.0,4.0,94,0.04,,---,0.27,VWS V14.01,2013-12-22 18:36:00,
2013-12-22 13:41:00,61.3,59.6,30.06,WNW,295,0.0,4.0,94,0.05,,---,0.28,VWS V14.01,2013-12-22 18:41:00,
2013-12-22 13:46:00,61.1,59.7,30.08,West,275,1.0,4.0,95,0.06,,---,0.29,VWS V14.01,2013-12-22 18:46:00,
2013-12-22 13:51:00,61.0,59.6,30.08,West,274,0.0,4.0,95,0.08,,---,0.31,VWS V14.01,2013-12-22 18:51:00,
2013-12-22 13:56:00,60.9,59.5,30.07,West,271,0.0,4.0,95,0.09,,---,0.32,VWS V14.01,2013-12-22 18:56:00,
2013-12-22 14:00:00,61.0,59.6,30.07,West,271,0.0,4.0,95,0.09,,---,0.32,VWS V14.01,2013-12-22 19:00:00,
2013-12-22 14:01:00,60.9,59.5,30.06,West,271,0.0,0.0,95,0.09,,---,0.32,VWS V14.01,2013-12-22 19:01:00,
2013-12-22 14:06:00,60.9,59.5,30.05,West,271,0.0,0.0,95,0.09,,---,0.32,VWS V14.01,2013-12-22 19:06:00,
2013-12-22 14:11:00,61.1,59.7,30.05,West,271,0.0,0.0,95,0.09,,---,0.32,VWS V14.01,2013-12-22 19:11:00,
2013-12-22 14:16:00,61.2,59.8,30.04,West,271,0.0,0.0,95,0.10,,---,0.33,VWS V14.01,2013-12-22 19:16:00,
2013-12-22 14:21:00,61.3,59.9,30.03,West,271,0.0,0.0,95,0.10,,---,0.33,VWS V14.01,2013-12-22 19:21:00,
2013-12-22 14:26:00,61.4,60.0,30.03,West,271,0.0,0.0,95,0.09,,---,0.33,VWS V14.01,2013-12-22 19:26:00,
2013-12-22 14:30:00,61.4,60.0,30.04,West,271,0.0,0.0,95,0.10,,---,0.33,VWS V14.01,2013-12-22 19:30:00,
2013-12-22 14:31:00,61.6,60.2,30.04,West,271,0.0,0.0,95,0.09,,---,0.33,VWS V14.01,2013-12-22 19:31:00,
2013-12-22 14:36:00,61.6,60.2,30.04,West,271,0.0,0.0,95,0.09,,---,0.33,VWS V14.01,2013-12-22 19:36:00,
2013-12-22 14:41:00,61.9,60.5,30.05,SE,136,0.0,4.0,95,0.09,,---,0.33,VWS V14.01,2013-12-22 19:41:00,
2013-12-22 14:46:00,62.0,60.6,30.05,SE,136,1.0,4.0,95,0.09,,---,0.33,VWS V14.01,2013-12-22 19:46:00,
2013-12-22 14:51:00,61.9,60.5,30.04,SE,142,0.0,4.0,95,0.09,,---,0.33,VWS V14.01,2013-12-22 19:51:00,
2013-12-22 14:56:00,61.8,60.4,30.04,SE,142,0.0,0.0,95,0.01,,---,0.33,VWS V14.01,2013-12-22 19:56:00,
2013-12-22 15:00:00,61.8,60.4,30.04,SE,142,0.0,4.0,95,0.09,,---,0.33,VWS V14.01,2013-12-22 20:00:00,
2013-12-22 15:01:00,61.8,60.4,30.05,SSE,155,0.0,2.0,95,0.01,,---,0.33,VWS V14.01,2013-12-22 20:01:00,
2013-12-22 15:06:00,61.7,60.3,30.05,SSE,155,0.0,2.0,95,0.01,,---,0.33,VWS V14.01,2013-12-22 20:06:00,
2013-12-22 15:11:00,61.7,60.3,30.06,SSE,155,0.0,2.0,95,0.01,,---,0.33,VWS V14.01,2013-12-22 20:11:00,
2013-12-22 15:16:00,61.7,60.3,30.07,SSE,155,0.0,2.0,95,0.01,,---,0.33,VWS V14.01,2013-12-22 20:16:00,
2013-12-22 15:21:00,61.6,60.2,30.06,SSE,155,0.0,2.0,95,0.03,,---,0.35,VWS V14.01,2013-12-22 20:21:00,
2013-12-22 15:30:00,61.6,60.2,30.07,SSE,155,0.0,2.0,95,0.05,,---,0.37,VWS V14.01,2013-12-22 20:30:00,
2013-12-22 15:34:00,61.6,60.2,30.08,WSW,246,0.0,3.0,95,0.14,,---,0.47,VWS V14.01,2013-12-22 20:34:00,
2013-12-22 15:39:00,61.3,59.9,30.09,SW,226,0.0,6.0,95,0.22,,---,0.55,VWS V14.01,2013-12-22 20:39:00,
2013-12-22 15:44:00,61.1,59.7,30.09,WSW,252,4.0,6.0,95,0.25,,---,0.58,VWS V14.01,2013-12-22 20:44:00,
2013-12-22 15:49:00,61.0,59.6,30.08,WSW,254,0.0,7.0,95,0.25,,---,0.58,VWS V14.01,2013-12-22 20:49:00,
2013-12-22 15:54:00,60.9,59.5,30.08,SW,223,0.0,7.0,95,0.25,,---,0.58,VWS V14.01,2013-12-22 20:54:00,
2013-12-22 15:59:00,60.9,59.5,30.08,SW,224,0.0,0.0,95,0.25,,---,0.58,VWS V14.01,2013-12-22 20:59:00,
2013-12-22 16:00:00,60.9,59.5,30.08,SW,224,0.0,7.0,95,0.25,,---,0.58,VWS V14.01,2013-12-22 21:00:00,
2013-12-22 16:04:00,60.9,59.5,30.08,SW,224,0.0,1.0,95,0.25,,---,0.58,VWS V14.01,2013-12-22 21:04:00,
2013-12-22 16:09:00,60.8,59.4,30.08,SW,224,0.0,1.0,95,0.25,,---,0.58,VWS V14.01,2013-12-22 21:09:00,
2013-12-22 16:14:00,60.8,59.4,30.08,SW,224,0.0,2.0,95,0.25,,---,0.58,VWS V14.01,2013-12-22 21:14:00,
2013-12-22 16:19:00,60.8,59.4,30.08,SW,224,0.0,2.0,95,0.25,,---,0.58,VWS V14.01,2013-12-22 21:19:00,
2013-12-22 16:24:00,60.8,59.4,30.09,SW,224,0.0,2.0,95,0.26,,---,0.59,VWS V14.01,2013-12-22 21:24:00,
2013-12-22 16:28:00,60.7,59.3,30.09,WNW,289,2.0,2.0,95,0.23,,---,0.60,VWS V14.01,2013-12-22 21:28:00,
2013-12-22 16:30:00,60.8,59.4,30.09,SW,224,0.0,2.0,95,0.26,,---,0.59,VWS V14.01,2013-12-22 21:30:00,
2013-12-22 16:33:00,60.7,59.3,30.08,WNW,289,0.0,2.0,95,0.23,,---,0.60,VWS V14.01,2013-12-22 21:33:00,
2013-12-22 16:38:00,60.7,59.3,30.09,WNW,282,0.0,2.0,95,0.23,,---,0.60,VWS V14.01,2013-12-22 21:38:00,
2013-12-22 16:43:00,60.7,59.3,30.09,SSW,198,1.0,3.0,95,0.25,,---,0.62,VWS V14.01,2013-12-22 21:43:00,
2013-12-22 16:48:00,60.7,59.3,30.09,SW,215,3.0,6.0,95,0.27,,---,0.64,VWS V14.01,2013-12-22 21:48:00,
2013-12-22 16:53:00,60.9,59.5,30.09,West,262,2.0,6.0,95,0.28,,---,0.65,VWS V14.01,2013-12-22 21:53:00,
2013-12-22 16:58:00,61.0,59.6,30.09,West,273,1.0,5.0,95,0.09,,---,0.67,VWS V14.01,2013-12-22 21:58:00,
2013-12-22 17:00:00,60.9,59.5,30.09,West,262,3.0,6.0,95,0.29,,---,0.66,VWS V14.01,2013-12-22 22:00:00,
2013-12-22 17:03:00,61.1,59.7,30.09,SE,130,0.0,5.0,95,0.11,,---,0.69,VWS V14.01,2013-12-22 22:03:00,
2013-12-22 17:08:00,61.1,59.7,30.09,SSE,159,0.0,7.0,95,0.12,,---,0.70,VWS V14.01,2013-12-22 22:08:00,
2013-12-22 17:13:00,61.2,59.8,30.09,SSE,162,1.0,7.0,95,0.14,,---,0.72,VWS V14.01,2013-12-22 22:13:00,
2013-12-22 17:18:00,61.3,59.9,30.09,South,184,2.0,7.0,95,0.14,,---,0.72,VWS V14.01,2013-12-22 22:18:00,
2013-12-22 17:23:00,61.3,59.9,30.08,South,169,3.0,7.0,95,0.15,,---,0.73,VWS V14.01,2013-12-22 22:23:00,
2013-12-22 17:28:00,61.4,60.0,30.08,South,179,0.0,6.0,95,0.14,,---,0.73,VWS V14.01,2013-12-22 22:28:00,
2013-12-22 17:30:00,61.4,60.0,30.08,SSW,194,0.0,7.0,95,0.15,,---,0.73,VWS V14.01,2013-12-22 22:30:00,
2013-12-22 17:33:00,61.4,60.0,30.08,South,179,0.0,6.0,95,0.14,,---,0.73,VWS V14.01,2013-12-22 22:33:00,
2013-12-22 17:38:00,61.4,60.0,30.08,South,190,1.0,6.0,95,0.14,,---,0.73,VWS V14.01,2013-12-22 22:38:00,
2013-12-22 17:43:00,61.4,60.0,30.08,SW,220,0.0,6.0,95,0.14,,---,0.73,VWS V14.01,2013-12-22 22:43:00,
2013-12-22 17:48:00,61.5,60.1,30.07,South,185,1.0,6.0,95,0.14,,---,0.73,VWS V14.01,2013-12-22 22:48:00,
2013-12-22 17:53:00,61.6,60.2,30.07,South,169,0.0,8.0,95,0.14,,---,0.73,VWS V14.01,2013-12-22 22:53:00,
2013-12-22 17:58:00,61.7,60.3,30.08,ESE,109,1.0,6.0,95,0.08,,---,0.74,VWS V14.01,2013-12-22 22:58:00,
2013-12-22 18:00:00,61.6,60.2,30.08,SE,141,1.0,10.0,95,0.14,,---,0.73,VWS V14.01,2013-12-22 23:00:00,
2013-12-22 18:03:00,61.8,60.4,30.06,ESE,118,0.0,7.0,95,0.08,,---,0.74,VWS V14.01,2013-12-22 23:03:00,
2013-12-22 18:08:00,61.8,60.4,30.06,SSE,151,1.0,10.0,95,0.09,,---,0.75,VWS V14.01,2013-12-22 23:08:00,
2013-12-22 18:13:00,61.9,60.5,30.06,East,87,7.0,11.0,95,0.09,,---,0.75,VWS V14.01,2013-12-22 23:13:00,
2013-12-22 18:19:00,62.0,60.6,30.07,SSE,161,7.0,14.0,95,0.09,,---,0.75,VWS V14.01,2013-12-22 23:19:00,
2013-12-22 18:24:00,62.1,60.7,30.07,SSW,196,0.0,14.0,95,0.09,,---,0.75,VWS V14.01,2013-12-22 23:24:00,
2013-12-22 18:29:00,62.1,60.7,30.07,South,191,0.0,10.0,95,0.03,,---,0.76,VWS V14.01,2013-12-22 23:29:00,
2013-12-22 18:30:00,62.1,60.7,30.07,South,181,0.0,14.0,95,0.09,,---,0.75,VWS V14.01,2013-12-22 23:30:00,
2013-12-22 18:34:00,62.1,60.7,30.06,SSE,164,4.0,10.0,95,0.03,,---,0.76,VWS V14.01,2013-12-22 23:34:00,
2013-12-22 18:39:00,62.2,60.8,30.06,SSE,160,4.0,10.0,95,0.03,,---,0.76,VWS V14.01,2013-12-22 23:39:00,
2013-12-22 18:44:00,62.2,60.8,30.06,SSW,199,0.0,12.0,95,0.03,,---,0.76,VWS V14.01,2013-12-22 23:44:00,
2013-12-22 18:49:00,62.2,60.8,30.06,SE,137,0.0,12.0,95,0.03,,---,0.76,VWS V14.01,2013-12-22 23:49:00,
2013-12-22 18:54:00,62.2,60.8,30.06,SE,131,3.0,12.0,95,0.03,,---,0.76,VWS V14.01,2013-12-22 23:54:00,
2013-12-22 18:59:00,62.2,60.8,30.06,South,182,0.0,4.0,95,0.03,,---,0.76,VWS V14.01,2013-12-22 23:59:00,
2013-12-22 19:00:00,62.2,60.8,30.06,SW,220,0.0,12.0,95,0.03,,---,0.76,VWS V14.01,2013-12-23 00:00:00,
2013-12-22 19:04:00,62.2,60.8,30.06,SSW,209,0.0,4.0,95,0.03,,---,0.76,VWS V14.01,2013-12-23 00:04:00,
2013-12-22 19:09:00,62.1,60.7,30.06,South,171,2.0,4.0,95,0.03,,---,0.76,VWS V14.01,2013-12-23 00:09:00,
2013-12-22 19:14:00,62.1,60.7,30.07,SSW,210,0.0,4.0,95,0.03,,---,0.76,VWS V14.01,2013-12-23 00:14:00,
2013-12-22 19:19:00,62.1,60.7,30.07,SSW,208,1.0,6.0,95,0.03,,---,0.76,VWS V14.01,2013-12-23 00:19:00,
2013-12-22 19:24:00,62.1,60.7,30.08,SW,231,4.0,6.0,95,0.03,,---,0.76,VWS V14.01,2013-12-23 00:24:00,
2013-12-22 19:29:00,62.3,60.8,30.09,SW,216,6.0,9.0,95,0.01,,---,0.76,VWS V14.01,2013-12-23 00:29:00,
2013-12-22 19:30:00,62.2,60.8,30.08,SSW,209,0.0,10.0,95,0.03,,---,0.76,VWS V14.01,2013-12-23 00:30:00,
2013-12-22 19:34:00,62.3,61.2,30.09,SSE,157,6.0,9.0,96,0.01,,---,0.76,VWS V14.01,2013-12-23 00:34:00,
2013-12-22 19:39:00,62.5,61.3,30.09,South,180,16.0,16.0,96,0.01,,---,0.76,VWS V14.01,2013-12-23 00:39:00,
2013-12-22 19:44:00,62.7,61.2,30.08,SW,215,0.0,16.0,95,0.01,,---,0.76,VWS V14.01,2013-12-23 00:44:00,
2013-12-22 19:49:00,62.7,61.2,30.08,NE,52,0.0,16.0,95,0.01,,---,0.76,VWS V14.01,2013-12-23 00:49:00,
2013-12-22 19:54:00,62.8,61.3,30.08,SE,140,1.0,16.0,95,0.01,,---,0.76,VWS V14.01,2013-12-23 00:54:00,
2013-12-22 19:59:00,62.8,61.3,30.08,SSW,212,0.0,7.0,95,0.00,,---,0.76,VWS V14.01,2013-12-23 00:59:00,
2013-12-22 20:00:00,62.7,61.2,30.08,South,176,5.0,16.0,95,0.01,,---,0.76,VWS V14.01,2013-12-23 01:00:00,
2013-12-22 20:04:00,62.8,61.3,30.07,SE,133,6.0,9.0,95,0.00,,---,0.76,VWS V14.01,2013-12-23 01:04:00,
2013-12-22 20:09:00,62.8,61.3,30.07,SW,229,1.0,12.0,95,0.00,,---,0.76,VWS V14.01,2013-12-23 01:09:00,
2013-12-22 20:14:00,62.8,61.3,30.07,SE,126,0.0,12.0,95,0.00,,---,0.76,VWS V14.01,2013-12-23 01:14:00,
2013-12-22 20:19:00,62.8,61.3,30.07,SSE,155,2.0,12.0,95,0.00,,---,0.76,VWS V14.01,2013-12-23 01:19:00,
2013-12-22 20:24:00,62.8,61.3,30.07,South,175,2.0,12.0,95,0.00,,---,0.76,VWS V14.01,2013-12-23 01:24:00,
2013-12-22 20:29:00,62.9,61.5,30.06,ESE,120,5.0,10.0,95,0.00,,---,0.76,VWS V14.01,2013-12-23 01:29:00,
2013-12-22 20:30:00,62.9,61.5,30.07,SE,132,4.0,12.0,95,0.00,,---,0.76,VWS V14.01,2013-12-23 01:30:00,
2013-12-22 20:34:00,62.9,61.5,30.06,SSW,193,0.0,10.0,95,0.00,,---,0.76,VWS V14.01,2013-12-23 01:34:00,
2013-12-22 20:39:00,62.9,61.5,30.06,SE,132,0.0,10.0,95,0.00,,---,0.76,VWS V14.01,2013-12-23 01:39:00,
2013-12-22 20:44:00,62.8,61.3,30.05,SSE,147,2.0,10.0,95,0.00,,---,0.76,VWS V14.01,2013-12-23 01:44:00,
2013-12-22 20:49:00,62.9,61.5,30.05,SE,140,4.0,10.0,95,0.00,,---,0.76,VWS V14.01,2013-12-23 01:49:00,
2013-12-22 20:54:00,62.9,61.5,30.04,SE,125,8.0,10.0,95,0.00,,---,0.76,VWS V14.01,2013-12-23 01:54:00,
2013-12-22 20:59:00,62.8,61.3,30.03,SW,228,3.0,6.0,95,0.00,,---,0.76,VWS V14.01,2013-12-23 01:59:00,
2013-12-22 21:00:00,62.9,61.5,30.04,SE,141,0.0,10.0,95,0.00,,---,0.76,VWS V14.01,2013-12-23 02:00:00,
2013-12-22 21:04:00,62.7,61.2,30.05,SSE,155,0.0,11.0,95,0.00,,---,0.76,VWS V14.01,2013-12-23 02:04:00,
2013-12-22 21:09:00,62.7,61.2,30.05,SSW,213,0.0,11.0,95,0.00,,---,0.76,VWS V14.01,2013-12-23 02:09:00,
2013-12-22 21:14:00,62.7,61.2,30.05,South,183,3.0,11.0,95,0.00,,---,0.76,VWS V14.01,2013-12-23 02:14:00,
2013-12-22 21:19:00,62.7,61.2,30.05,SSW,213,0.0,11.0,95,0.00,,---,0.76,VWS V14.01,2013-12-23 02:19:00,
2013-12-22 21:24:00,62.7,61.2,30.05,WSW,242,5.0,11.0,95,0.00,,---,0.76,VWS V14.01,2013-12-23 02:24:00,
2013-12-22 21:29:00,62.8,61.3,30.05,South,180,4.0,4.0,95,0.00,,---,0.76,VWS V14.01,2013-12-23 02:29:00,
2013-12-22 21:30:00,62.7,61.2,30.05,SSW,201,3.0,11.0,95,0.00,,---,0.76,VWS V14.01,2013-12-23 02:30:00,
2013-12-22 21:34:00,62.8,61.3,30.05,South,183,7.0,7.0,95,0.00,,---,0.76,VWS V14.01,2013-12-23 02:34:00,
2013-12-22 21:39:00,62.8,61.3,30.04,SSE,161,3.0,7.0,95,0.00,,---,0.76,VWS V14.01,2013-12-23 02:39:00,
2013-12-22 21:44:00,62.9,61.5,30.03,SE,143,2.0,7.0,95,0.00,,---,0.76,VWS V14.01,2013-12-23 02:44:00,
2013-12-22 21:49:00,62.9,61.5,30.03,SSE,165,0.0,9.0,95,0.00,,---,0.76,VWS V14.01,2013-12-23 02:49:00,
2013-12-22 21:54:00,62.9,61.5,30.03,South,171,0.0,9.0,95,0.00,,---,0.76,VWS V14.01,2013-12-23 02:54:00,
2013-12-22 21:59:00,62.8,61.3,30.04,SE,144,0.0,3.0,95,0.00,,---,0.76,VWS V14.01,2013-12-23 02:59:00,
2013-12-22 22:00:00,62.9,61.5,30.03,SE,145,0.0,9.0,95,0.00,,---,0.76,VWS V14.01,2013-12-23 03:00:00,
2013-12-22 22:04:00,62.8,61.3,30.04,SE,136,0.0,5.0,95,0.00,,---,0.76,VWS V14.01,2013-12-23 03:04:00,
2013-12-22 22:09:00,62.8,61.3,30.04,SE,135,0.0,5.0,95,0.00,,---,0.76,VWS V14.01,2013-12-23 03:09:00,
2013-12-22 22:15:00,62.8,61.3,30.05,SSW,211,1.0,5.0,95,0.00,,---,0.76,VWS V14.01,2013-12-23 03:15:00,
2013-12-22 22:20:00,62.8,61.3,30.05,South,180,4.0,5.0,95,0.00,,---,0.76,VWS V14.01,2013-12-23 03:20:00,
2013-12-22 22:25:00,62.9,61.5,30.06,South,170,0.0,5.0,95,0.00,,---,0.76,VWS V14.01,2013-12-23 03:25:00,
2013-12-22 22:30:00,62.8,61.3,30.06,South,183,0.0,2.0,95,0.00,,---,0.76,VWS V14.01,2013-12-23 03:30:00,
2013-12-22 22:35:00,62.9,61.5,30.06,SW,227,0.0,4.0,95,0.00,,---,0.76,VWS V14.01,2013-12-23 03:35:00,
2013-12-22 22:40:00,62.9,61.5,30.06,SSW,198,0.0,4.0,95,0.00,,---,0.76,VWS V14.01,2013-12-23 03:40:00,
2013-12-22 22:45:00,63.0,61.5,30.06,SW,218,0.0,4.0,95,0.00,,---,0.76,VWS V14.01,2013-12-23 03:45:00,
2013-12-22 22:50:00,63.0,61.5,30.05,South,174,0.0,4.0,95,0.00,,---,0.76,VWS V14.01,2013-12-23 03:50:00,
2013-12-22 22:55:00,63.0,61.5,30.06,WSW,238,0.0,4.0,95,0.00,,---,0.76,VWS V14.01,2013-12-23 03:55:00,
2013-12-22 23:00:00,63.0,61.5,30.06,SW,234,0.0,1.0,95,0.00,,---,0.76,VWS V14.01,2013-12-23 04:00:00,
2013-12-22 23:05:00,63.0,61.5,30.05,South,173,0.0,4.0,95,0.01,,---,0.77,VWS V14.01,2013-12-23 04:05:00,
2013-12-22 23:10:00,63.0,61.5,30.05,SW,224,2.0,4.0,95,0.01,,---,0.77,VWS V14.01,2013-12-23 04:10:00,
2013-12-22 23:15:00,63.0,61.5,30.05,SSW,198,1.0,5.0,95,0.01,,---,0.77,VWS V14.01,2013-12-23 04:15:00,
2013-12-22 23:20:00,63.0,61.5,30.05,SE,140,3.0,6.0,95,0.01,,---,0.77,VWS V14.01,2013-12-23 04:20:00,
2013-12-22 23:25:00,63.0,61.8,30.05,SW,222,0.0,6.0,96,0.01,,---,0.77,VWS V14.01,2013-12-23 04:25:00,
2013-12-22 23:30:00,63.0,61.8,30.04,SSW,196,0.0,4.0,96,0.01,,---,0.77,VWS V14.01,2013-12-23 04:30:00,
2013-12-22 23:35:00,62.9,61.8,30.04,SSE,148,0.0,7.0,96,0.01,,---,0.77,VWS V14.01,2013-12-23 04:35:00,
2013-12-22 23:40:00,62.9,61.8,30.03,SSE,149,0.0,7.0,96,0.01,,---,0.77,VWS V14.01,2013-12-23 04:40:00,
2013-12-22 23:45:00,63.0,61.8,30.03,SSE,165,0.0,7.0,96,0.01,,---,0.77,VWS V14.01,2013-12-23 04:45:00,
2013-12-22 23:50:00,63.2,62.0,30.03,SSW,200,0.0,7.0,96,0.01,,---,0.77,VWS V14.01,2013-12-23 04:50:00,
2013-12-22 23:55:00,63.2,61.8,30.03,SSE,159,7.0,7.0,95,0.01,,---,0.77,VWS V14.01,2013-12-23 04:55:00,